Regional Weather Roundup
Issued by NWS Wakefield, VA

Home | Current Version | Previous Version | Graphics & Text | Print | Product List | Glossary On
Versions: 1 2 3 4 5 6 7 8 9 10 11 12 13 14 15 16 17 18 19 20 21 22 23 24 25 26 27 28
000
ASUS41 KAKQ 221710
RWRAKQ

REGIONAL WEATHER ROUNDUP
NATIONAL WEATHER SERVICE WAKEFIELD VA
100 PM EDT TUE APR 22 2014

Note: "fair" indicates few or no clouds below 12,000 feet with no
significant weather and/or obstructions to visibility. * = Denotes
station may not report precipitation (e.g., rain,snow,etc.),
thunder or fog.

VAZ042-051-052>054-056-221800-
NORTHERN VIRGINIA

CITY           SKY/WX    TMP DP  RH WIND       PRES   REMARKS
WASH NATIONAL  CLOUDY    70  49  47 S7        29.66F
DULLES         LGT RAIN  66  48  52 W7        29.68F
FORT BELVOIR   PTSUNNY   71  46  40 S3        29.67F
QUANTICO       CLOUDY    67  51  56 S6        29.67F
FREDERICKSBRG* CLOUDY    75  46  35 W7        29.65F
STAFFORD*      CLOUDY    75  49  40 CALM      29.70F
WARRENTON      LGT RAIN  67  59  73 NW5       29.68F
CULPEPER*      DRIZZLE   70  50  49 N6        29.69F
MANASSAS*      CLOUDY    64  54  68 W3        29.69R
LEESBURG*      LGT RAIN  64  57  77 W5        29.69S
WINCHESTER     LGT RAIN  63  52  67 W6        29.68F
$$

VAZ048-049-060>072-079>083-221800-
CENTRAL AND SOUTH CENTRAL VIRGINIA...AND NORTH CENTRAL NORTH CAROLINA

CITY           SKY/WX    TMP DP  RH WIND       PRES   REMARKS
RICHMOND       PTSUNNY   80  44  27 W9        29.68F
CHESTERFIELD*  NOT AVBL
HANOVER        MOSUNNY   81  45  28 SW9       29.68F
TAPPAHANNOCK*  MOSUNNY   79  40  24 SW9       29.66F
CHARLOTTSVILLE CLOUDY    71  52  50 S7        29.68F
ORANGE*        LGT RAIN  70  52  52 S8        29.70F
LOUISA*        DRIZZLE   75  46  35 W10G16    29.67F
FARMVILLE*     PTSUNNY   81  45  28 S3        29.66F
SOUTH HILL*    MOSUNNY   81  52  36 W3        29.75F
ROANOKE RAPIDS MOSUNNY   63  39  42 SW8       29.71F
RALEIGH        PTSUNNY   80  53  39 SW6       29.74F
$$

VAZ088>098-221800-
SOUTHEAST VIRGINIA

CITY           SKY/WX    TMP DP  RH WIND       PRES   REMARKS
NORFOLK        SUNNY     77  47  34 S16       29.68F
VIRGINIA BEACH PTSUNNY   76  48  37 S12       29.69F
NORFOLK NAVAL  PTSUNNY   77  47  34 S12       29.70F
WEST POINT*    MOSUNNY   77  44  30 S5        29.68F
NEWPORT NEWS   SUNNY     78  49  35 S13       29.69F
LANGLEY AFB    PTSUNNY   75  50  41 S14G21    29.68F
FORT EUSTIS    MOSUNNY   74  55  52 S7        29.67F
WILLIAMSBURG*  MOSUNNY   79  52  38 SW8       29.69F
FRANKLIN*      MOSUNNY   79  46  31 SW9       29.69F
WAKEFIELD        N/A     75  48  38 MISG      29.69F
$$

VAZ020-022-025-037-045-221800-
WESTERN AND SOUTHWEST VIRGINIA

CITY           SKY/WX    TMP DP  RH WIND       PRES   REMARKS
STAUNTON*      CLOUDY    68  47  47 SW8       29.72F
HOT SPRINGS VA CLOUDY    57  46  67 W20G30    29.84F
LYNCHBURG      CLOUDY    78  49  35 VRB3      29.73F
DANVILLE       PTSUNNY   79  50  36 W10       29.72F
MARTINSVILLE   PTSUNNY   78  48  34 W6        29.77F
ROANOKE        CLOUDY    74  48  39 W15G30    29.75F
BLACKSBURG     LGT RAIN  68  54  60 W12G17    29.82S
DUBLIN*        CLOUDY    66  51  57 W9        29.81F
MARION*        LGT RAIN  58  54  84 W12       29.88R
HILLSVILLE*    PTSUNNY   68  45  42 W17       29.85F
RICHLANDS*     CLOUDY    58  56  91 W6        29.87F
WISE*          DRIZZLE   57  55  94 W6        29.89F
ABINGDON*      LGT RAIN  62  55  77 W7        29.86F
$$

MDZ021>025-VAZ099-100-221800-
SOUTHERN MARYLAND AND THE DELMARVA PENINSULA

CITY           SKY/WX    TMP DP  RH WIND       PRES   REMARKS
PATUXENT RIVER PTSUNNY   67  52  58 SE8       29.66F
BAY BRIDGE APT SUNNY     66  45  45 SE9       29.66F
LEONARDTOWN    MOSUNNY   72  43  35 W10G16    29.68S
DOVER          MOSUNNY   74  48  39 S9        29.62F
GEORGETOWN     MOSUNNY   75  40  28 SW15G22   29.65F
EASTON         MOSUNNY   73  48  40 SW10      29.69F
CAMBRIDGE      NOT AVBL
SALISBURY      SUNNY     77  39  25 S18       29.65F
OCEAN CITY     SUNNY     58  49  72 S12G18    29.68F
WALLOPS ISLAND PTSUNNY   64  50  60 S16       29.69F
ACCOMACK*      SUNNY     72  45  37 S8        29.68F
$$

NCZ012>017-030>032-221800-
EASTERN NORTH CAROLINA

CITY           SKY/WX    TMP DP  RH WIND       PRES   REMARKS
ELIZABETH CITY MOSUNNY   74  53  48 S9        29.72F
AHOSKIE*       MOSUNNY   76  48  36 S3        29.71F
EDENTON*       MOSUNNY   75  49  40 SW8       29.73F
CURRITUCK*     MOSUNNY   74  48  40 SW9G20    29.72F
KILL DEVIL HLS MOSUNNY   73  49  43 S5        29.73F
MANTEO         MOSUNNY   68  55  62 S12       29.74F
CAPE HATTERAS  MOSUNNY   62  32  32 SW7       29.78F
GOLDSBORO      SUNNY     78  50  38 SW13      29.73F
WASHINGTON     SUNNY     78  47  32 SW10G18   29.74F
GREENVILLE     SUNNY     77  50  38 SW9G17    29.77F
NEW BERN       SUNNY     77  49  37 SW7       29.78F
WILMINGTON     SUNNY     78  46  32 SW13      29.78F
$$

VAZ048-221800-
ELSEWHERE

CITY           SKY/WX    TMP DP  RH WIND       PRES   REMARKS
HARRISBURG PA  LGT RAIN  61  45  55 CALM      29.64F
BALTIMORE      PTSUNNY   74  46  36 SW7       29.63F
ANNAPOLIS      SUNNY     61  51  70 SE10      29.65F
ANDREWS AFB    MOSUNNY   75  47  35 W9        29.66F
WILMINGTON DE  MOSUNNY   70  49  47 S10       29.64F
PHILADELPHIA   PTSUNNY   71  44  37 SW13      29.63F
WILDWOOD NJ*   MOSUNNY   64  48  55 S9        29.68F
ATLANTIC CITY  MOSUNNY   65  47  52 S10       29.65F
HENDERSON NC   MOSUNNY   80  44  28 W6        29.72F
GREENSBORO     PTSUNNY   77  49  37 W13       29.76F
ROCKY MOUNT    SUNNY     78  51  38 SW9       29.73F
FAYETTEVILLE   SUNNY     79  48  33 SW9       29.75F
CHARLOTTE      PTSUNNY   79  51  37 S7        29.79F
$$

VAZ100-221800-
MARINE

STATION/POSITION TIME  TEMP    WIND        PRES    WAVE   SWELL
                       AIR SEA DIR/SP/G            HT/PER HT/PER
                 (UTC) (F)     (DEG/KT/KT) (MB)    (FT/S) (FT/S)
44066 TX TWR #4  1700   49 47  180/  8/  8 1005.6F   4/ 8   5/ 8
CAPE MAY NJ      1700   57 55  170/ 13/ 16 1004.3F
LEWES DE         1700   73 50  220/  8/ 13 1003.3F
15NM E FENWICK I 1700   50 47              1005.1F   5/ 9
OCEAN-CITY-INLET 1700   51 49  210/ 12/ 14 1004.9F
WACHAPREAGUE VA  1700   60 57  190/  9/ 12 1005.0F
THOMAS POINT MD  1700   58 55  180/ 10/ 11 1004.7F
GOOSES REEF MD   1700   57     180/ 12/ 14   N/A
COVE POINT MD    1700   55     170/ 11/ 12 1004.3F
SOLOMONS ISLAND  1600      55                N/A
BISHOPS HEAD MD  1700   57 58  150/ 10/ 11 1004.3F
PINEY POINT MD   1700          100/  5/  5   N/A
POTOMAC MD       1700   57     140/  6/  8 1003.9F
CAMBRIDGE MD     1700   68 56  180/  8/ 11 1003.8F
LEWISETTA VA     1700   72 57  220/  4/  5 1003.8F
RAPPAHANNOCK LGT 1700          170/ 12/ 13 1005.3F
STINGRAY PT      1700   58     180/ 12/ 14 1005.1F
YORK RVR RNG VA  1700   65     210/ 13/ 14 1004.1F
YORKTOWN VA      1700   72 56  220/ 11/ 15 1004.5F
JAMESTOWN VA     1700   71     240/  4/  8   N/A
DOMINION TERM VA 1700   67     230/ 10/ 12 1005.4F
KIPTOPEKE VA     1700      55  180/ 11/ 12   N/A
CHES BAY BRIDGE  1700   69 53  190/ 10/ 12 1005.2F
CAPE HENRY VA    1700   74     180/  7/ 12   N/A
CHESAPEAKE LGHT  1600   53     180/ 18/ 19 1007.2F
WILLOUBY STN VA  1700   65     250/  7/  8 1004.5F
S CRANEY ISL VA  1700          180/ 10/ 15 1005.3F
CAPE HENRY BUOY  1700      47                N/A     4/ 8
1ST LANDING BUOY 1700      49                N/A     4/ 8   3/ 8
64NM E OF VA BCH 1700   50 49  180/  8/ 10 1007.3F   5/ 9   5/ 9
DUCK PIER NC     1700   68 50  190/ 11/ 14 1005.9F
44100 DUCK FRF   1700      50                N/A     4/ 8   2/11
44056 DUCK FRF   1700      53                N/A     4/ 8   2/11
OREGON INLET NC  1700   60 54  170/ 11/ 13 1007.5F
HATTERAS NC      1700   65 54  210/  8/ 12 1008.6F
DIAMOND SHLS NC  1700   69 76  250/ 16/ 17 1008.3F   5/ 9   5/ 9
CAPE LOOKOUT NC  1600   66     230/  9/ 12 1009.7F
FRYING PAN SHLS  1700   67 67  240/ 16/ 17 1009.7F   4/ 4   2/10
$$



USA.gov is the U.S. government's official web portal to all federal, state and local government web resources and services.